Location: Buckland
(65.9785°N, 161.1281°W)
Time: 05:25:21
(UTC+00:00)

Transit 2A Rocket - Pass Details

Date: 27 November 2020
Orbit: 592 x 910 km, 66.7° (Epoch: 21 January)

Event Time Altitude Azimuth Distance (km) Brightness Sun altitude
Exits shadow 13:21:55 22° 91° (E) 1,724 7.2 -37.7°
Drops below altitude 10° 13:24:22 10° 68° (ENE) 2,345 8.2 -37.5°
Sets 13:26:59 0° 56° (ENE) 3,219 9.2 -37.3°
